START_TIME,STEP,MOV.,AL01,t_acc.,AL02,t_acc.,E37,t_acc.,H21,t_acc.
1989-08-27T18:00:34.820 ,7,0,32.,24.0,0.,24.0,0.,24.0,0.,24.0
1989-08-27T18:00:58.820 ,7,1,30.,24.0,0.,24.0,0.,24.0,0.,24.0
1989-08-27T18:01:22.820 ,7,0,42.,24.0,0.,24.0,0.,24.0,0.,24.0
1989-08-27T18:01:46.820 ,6,1,20.,24.0,0.,24.0,0.,24.0,0.,24.0
1989-08-27T18:02:10.820 ,6,0,0.,24.0,0.,24.0,0.,24.0,0.,24.0
1989-08-27T18:02:34.820 ,5,1,0.,24.0,0.,24.0,0.,24.0,0.,24.0
1989-08-27T18:02:58.820 ,5,0,1.,24.0,0.,24.0,0.,24.0,0.,24.0
1989-08-27T18:03:22.820 ,4,1,0.,24.0,0.,24.0,0.,24.0,0.,24.0
1989-08-27T18:03:46.820 ,4,0,0.,24.0,0.,24.0,0.,24.0,0.,24.0
1989-08-27T18:04:10.820 ,3,1,0.,24.0,0.,24.0,0.,24.0,0.,24.0
1989-08-27T18:04:34.820 ,3,0,0.,24.0,0.,24.0,0.,24.0,0.,24.0
1989-08-27T18:04:58.820 ,2,1,0.,24.0,0.,24.0,0.,24.0,0.,24.0
1989-08-27T18:05:22.820 ,2,0,0.,24.0,0.,24.0,0.,24.0,0.,24.0
1989-08-27T18:05:46.820 ,1,1,0.,24.0,0.,24.0,0.,24.0,0.,24.0
1989-08-27T18:06:10.820 ,1,0,0.,24.0,0.,24.0,0.,24.0,0.,24.0
1989-08-27T18:06:34.820 ,0,1,0.,24.0,0.,24.0,0.,24.0,0.,24.0
1989-08-27T18:06:58.820 ,0,0,0.,24.0,0.,24.0,0.,24.0,0.,24.0
1989-08-27T18:07:22.820 ,0,1,0.,24.0,0.,24.0,0.,24.0,0.,24.0
1989-08-27T18:07:46.820 ,0,0,0.,24.0,0.,24.0,0.,24.0,0.,24.0
1989-08-27T18:08:10.820 ,1,1,0.,24.0,0.,24.0,0.,24.0,0.,24.0
1989-08-27T18:08:34.820 ,1,0,0.,24.0,0.,24.0,0.,24.0,0.,24.0
1989-08-27T18:08:58.820 ,2,1,1.,24.0,0.,24.0,0.,24.0,0.,24.0
1989-08-27T18:09:22.820 ,2,0,0.,24.0,0.,24.0,0.,24.0,0.,24.0
1989-08-27T18:09:46.820 ,3,1,0.,24.0,0.,24.0,0.,24.0,0.,24.0
1989-08-27T18:10:10.820 ,3,0,0.,24.0,0.,24.0,0.,24.0,0.,24.0
1989-08-27T18:10:34.820 ,4,1,0.,24.0,0.,24.0,0.,24.0,0.,24.0
1989-08-27T18:10:58.820 ,4,0,0.,24.0,0.,24.0,0.,24.0,0.,24.0
1989-08-27T18:11:22.820 ,5,1,0.,24.0,0.,24.0,0.,24.0,0.,24.0
1989-08-27T18:11:46.820 ,0,0,0.,24.0,0.,24.0,0.,24.0,0.,24.0
1989-08-27T18:12:10.220 ,0,0,,0,,0,,0,,0
1989-08-27T18:12:10.820 ,6,1,0.,24.0,0.,24.0,0.,24.0,0.,24.0
1989-08-27T18:12:34.820 ,6,0,0.,24.0,0.,24.0,0.,24.0,0.,24.0
1989-08-27T18:12:58.820 ,7,1,4.,24.0,0.,24.0,0.,24.0,0.,24.0
1989-08-27T18:13:22.820 ,7,0,33.,24.0,0.,24.0,0.,24.0,0.,24.0
1989-08-27T18:13:46.820 ,7,1,36.,24.0,0.,24.0,0.,24.0,0.,24.0
1989-08-27T18:14:10.820 ,7,0,33.,24.0,0.,24.0,0.,24.0,0.,24.0
1989-08-27T18:14:34.820 ,6,1,18.,24.0,0.,24.0,0.,24.0,0.,24.0
1989-08-27T18:14:58.820 ,6,0,0.,24.0,0.,24.0,0.,24.0,0.,24.0
1989-08-27T18:15:22.820 ,5,1,0.,24.0,0.,24.0,0.,24.0,0.,24.0
1989-08-27T18:15:46.820 ,0,0,0.,24.0,0.,24.0,0.,24.0,0.,24.0
1989-08-27T18:18:37.220 ,0,0,0.,24.0,0.,24.0,0.,24.0,0.,24.0
1989-08-27T18:18:58.820 ,0,0,0.,24.0,0.,24.0,0.,24.0,0.,24.0
1989-08-27T18:19:22.820 ,0,1,0.,24.0,0.,24.0,0.,24.0,0.,24.0
1989-08-27T18:19:46.820 ,0,0,0.,24.0,0.,24.0,0.,24.0,0.,24.0
1989-08-27T18:20:10.820 ,0,1,0.,24.0,0.,24.0,0.,24.0,0.,24.0
1989-08-27T18:20:34.820 ,0,0,0.,24.0,0.,24.0,0.,24.0,0.,24.0
1989-08-27T18:20:58.820 ,1,1,0.,24.0,1.,24.0,0.,24.0,0.,24.0
1989-08-27T18:21:22.820 ,1,0,0.,24.0,0.,24.0,0.,24.0,0.,24.0
1989-08-27T18:21:46.820 ,2,1,0.,24.0,0.,24.0,0.,24.0,0.,24.0
1989-08-27T18:22:10.820 ,2,0,0.,24.0,0.,24.0,0.,24.0,0.,24.0
1989-08-27T18:22:34.820 ,3,1,0.,24.0,0.,24.0,0.,24.0,0.,24.0
1989-08-27T18:22:58.820 ,3,0,0.,24.0,0.,24.0,0.,24.0,0.,24.0
1989-08-27T18:23:22.820 ,4,1,0.,24.0,0.,24.0,0.,24.0,0.,24.0
1989-08-27T18:23:46.820 ,0,0,0.,24.0,0.,24.0,0.,24.0,0.,24.0
1989-08-27T18:24:49.220 ,0,0,,0,,0,,0,,0
1989-08-27T18:24:58.820 ,6,1,0.,24.0,0.,24.0,0.,24.0,0.,24.0
1989-08-27T18:25:22.820 ,6,0,0.,24.0,0.,24.0,0.,24.0,0.,24.0
1989-08-27T18:25:46.820 ,7,1,8.,24.0,0.,24.0,0.,24.0,0.,24.0
1989-08-27T18:26:10.820 ,7,0,34.,24.0,0.,24.0,0.,24.0,0.,24.0
1989-08-27T18:26:34.820 ,7,1,36.,24.0,0.,24.0,0.,24.0,0.,24.0
1989-08-27T18:26:58.820 ,7,0,29.,24.0,0.,24.0,0.,24.0,0.,24.0
1989-08-27T18:27:22.820 ,6,1,22.,24.0,0.,24.0,0.,24.0,0.,24.0
1989-08-27T18:27:46.820 ,6,0,0.,24.0,0.,24.0,0.,24.0,0.,24.0
1989-08-27T18:28:10.820 ,5,1,0.,24.0,0.,24.0,0.,24.0,0.,24.0
1989-08-27T18:28:34.820 ,5,0,0.,24.0,0.,24.0,0.,24.0,0.,24.0
1989-08-27T18:28:58.820 ,4,1,0.,24.0,0.,24.0,0.,24.0,0.,24.0
1989-08-27T18:29:22.820 ,4,0,0.,24.0,0.,24.0,0.,24.0,0.,24.0
1989-08-27T18:29:46.820 ,3,1,0.,24.0,0.,24.0,0.,24.0,0.,24.0
1989-08-27T18:30:10.820 ,3,0,0.,24.0,0.,24.0,0.,24.0,0.,24.0
1989-08-27T18:30:34.820 ,2,1,1.,24.0,0.,24.0,0.,24.0,0.,24.0
1989-08-27T18:30:58.820 ,2,0,0.,24.0,0.,24.0,0.,24.0,0.,24.0
1989-08-27T18:31:22.820 ,1,1,0.,24.0,0.,24.0,0.,24.0,0.,24.0
1989-08-27T18:31:46.820 ,1,0,0.,24.0,0.,24.0,0.,24.0,0.,24.0
1989-08-27T18:32:10.820 ,0,1,0.,24.0,0.,24.0,0.,24.0,0.,24.0
1989-08-27T18:32:34.820 ,0,0,0.,24.0,0.,24.0,0.,24.0,0.,24.0
1989-08-27T18:32:58.820 ,0,1,0.,24.0,0.,24.0,0.,24.0,0.,24.0
1989-08-27T18:33:22.820 ,0,0,0.,24.0,0.,24.0,0.,24.0,0.,24.0
1989-08-27T18:33:46.820 ,1,1,0.,24.0,0.,24.0,0.,24.0,0.,24.0
1989-08-27T18:34:10.820 ,1,0,0.,24.0,0.,24.0,0.,24.0,0.,24.0
1989-08-27T18:34:34.820 ,2,1,1.,24.0,0.,24.0,0.,24.0,0.,24.0
1989-08-27T18:34:58.820 ,2,0,0.,24.0,0.,24.0,0.,24.0,0.,24.0
1989-08-27T18:35:22.820 ,3,1,0.,24.0,0.,24.0,0.,24.0,0.,24.0
1989-08-27T18:35:46.820 ,3,0,0.,24.0,0.,24.0,0.,24.0,0.,24.0
1989-08-27T18:36:10.820 ,4,1,0.,24.0,0.,24.0,0.,24.0,0.,24.0
1989-08-27T18:36:34.820 ,4,0,0.,24.0,0.,24.0,0.,24.0,0.,24.0
1989-08-27T18:36:58.820 ,5,1,0.,24.0,0.,24.0,0.,24.0,0.,24.0
1989-08-27T18:37:22.820 ,5,0,0.,24.0,0.,24.0,0.,24.0,0.,24.0
1989-08-27T18:37:46.820 ,6,1,0.,24.0,0.,24.0,0.,24.0,0.,24.0
1989-08-27T18:38:10.820 ,6,0,0.,24.0,0.,24.0,0.,24.0,0.,24.0
1989-08-27T18:38:34.820 ,7,1,5.,24.0,0.,24.0,0.,24.0,0.,24.0
1989-08-27T18:38:58.820 ,7,0,24.,24.0,0.,24.0,0.,24.0,0.,24.0
1989-08-27T18:39:22.820 ,7,1,30.,24.0,0.,24.0,0.,24.0,0.,24.0
1989-08-27T18:39:46.820 ,7,0,21.,24.0,0.,24.0,0.,24.0,0.,24.0
1989-08-27T18:40:10.820 ,6,1,23.,24.0,0.,24.0,0.,24.0,0.,24.0
1989-08-27T18:40:34.820 ,6,0,0.,24.0,0.,24.0,0.,24.0,0.,24.0
1989-08-27T18:40:58.820 ,5,1,0.,24.0,0.,24.0,0.,24.0,0.,24.0
1989-08-27T18:41:22.820 ,5,0,0.,24.0,0.,24.0,0.,24.0,0.,24.0
1989-08-27T18:41:46.820 ,4,1,0.,24.0,1.,24.0,0.,24.0,0.,24.0
1989-08-27T18:42:10.820 ,4,0,0.,24.0,0.,24.0,0.,24.0,0.,24.0
1989-08-27T18:42:34.820 ,3,1,0.,24.0,0.,24.0,0.,24.0,0.,24.0
1989-08-27T18:42:58.820 ,3,0,0.,24.0,0.,24.0,0.,24.0,0.,24.0
1989-08-27T18:43:22.820 ,2,1,0.,24.0,0.,24.0,0.,24.0,0.,24.0
1989-08-27T18:43:46.820 ,2,0,0.,24.0,0.,24.0,0.,24.0,0.,24.0
1989-08-27T18:44:10.820 ,1,1,0.,24.0,0.,24.0,0.,24.0,0.,24.0
1989-08-27T18:44:34.820 ,1,0,0.,24.0,0.,24.0,0.,24.0,0.,24.0
1989-08-27T18:44:58.820 ,0,1,0.,24.0,0.,24.0,0.,24.0,0.,24.0
1989-08-27T18:45:22.820 ,0,0,0.,24.0,0.,24.0,0.,24.0,0.,24.0
1989-08-27T18:45:46.820 ,0,1,0.,24.0,0.,24.0,0.,24.0,0.,24.0
1989-08-27T18:46:10.820 ,0,0,0.,24.0,0.,24.0,0.,24.0,0.,24.0
1989-08-27T18:46:34.820 ,1,1,0.,24.0,0.,24.0,0.,24.0,0.,24.0
1989-08-27T18:46:58.820 ,1,0,0.,24.0,0.,24.0,0.,24.0,0.,24.0
1989-08-27T18:47:22.820 ,2,1,0.,24.0,0.,24.0,0.,24.0,0.,24.0
1989-08-27T18:47:46.820 ,2,0,0.,24.0,0.,24.0,0.,24.0,0.,24.0
1989-08-27T18:48:10.820 ,3,1,0.,24.0,0.,24.0,0.,24.0,0.,24.0
1989-08-27T18:48:34.820 ,3,0,1.,24.0,0.,24.0,0.,24.0,0.,24.0
1989-08-27T18:48:58.820 ,4,1,0.,24.0,0.,24.0,0.,24.0,0.,24.0
1989-08-27T18:49:22.820 ,4,0,0.,24.0,1.,24.0,0.,24.0,0.,24.0
1989-08-27T18:49:46.820 ,5,1,0.,24.0,0.,24.0,0.,24.0,0.,24.0
1989-08-27T18:50:10.820 ,5,0,0.,24.0,0.,24.0,0.,24.0,0.,24.0
1989-08-27T18:50:34.820 ,6,1,0.,24.0,0.,24.0,0.,24.0,0.,24.0
1989-08-27T18:50:58.820 ,6,0,0.,24.0,0.,24.0,0.,24.0,0.,24.0
1989-08-27T18:51:22.820 ,7,1,4.,24.0,0.,24.0,0.,24.0,0.,24.0
1989-08-27T18:51:46.820 ,7,0,23.,24.0,0.,24.0,0.,24.0,0.,24.0
1989-08-27T18:52:10.820 ,7,1,25.,24.0,0.,24.0,0.,24.0,0.,24.0
1989-08-27T18:52:34.820 ,7,0,27.,24.0,0.,24.0,0.,24.0,0.,24.0
1989-08-27T18:52:58.820 ,6,1,27.,24.0,0.,24.0,0.,24.0,0.,24.0
1989-08-27T18:53:22.820 ,6,0,1.,24.0,0.,24.0,0.,24.0,0.,24.0
1989-08-27T18:53:46.820 ,5,1,0.,24.0,0.,24.0,0.,24.0,0.,24.0
1989-08-27T18:54:10.820 ,5,0,1.,24.0,0.,24.0,0.,24.0,0.,24.0
1989-08-27T18:54:34.820 ,4,1,0.,24.0,0.,24.0,0.,24.0,0.,24.0
1989-08-27T18:54:58.820 ,4,0,0.,24.0,0.,24.0,0.,24.0,0.,24.0
1989-08-27T18:55:22.820 ,3,1,0.,24.0,0.,24.0,0.,24.0,0.,24.0
1989-08-27T18:55:46.820 ,3,0,0.,24.0,0.,24.0,0.,24.0,0.,24.0
1989-08-27T18:56:10.820 ,2,1,0.,24.0,0.,24.0,0.,24.0,0.,24.0
1989-08-27T18:56:34.820 ,2,0,0.,24.0,0.,24.0,0.,24.0,0.,24.0
1989-08-27T18:56:58.820 ,1,1,0.,24.0,0.,24.0,0.,24.0,0.,24.0
1989-08-27T18:57:22.820 ,1,0,0.,24.0,0.,24.0,0.,24.0,0.,24.0
1989-08-27T18:57:46.820 ,0,1,0.,24.0,0.,24.0,0.,24.0,0.,24.0
1989-08-27T18:58:10.820 ,0,0,0.,24.0,0.,24.0,0.,24.0,0.,24.0
1989-08-27T18:58:34.820 ,0,1,0.,24.0,0.,24.0,0.,24.0,0.,24.0
1989-08-27T18:58:58.820 ,0,0,0.,24.0,0.,24.0,0.,24.0,0.,24.0
1989-08-27T18:59:22.820 ,1,1,0.,24.0,0.,24.0,0.,24.0,0.,24.0
1989-08-27T18:59:46.820 ,1,0,0.,24.0,0.,24.0,0.,24.0,0.,24.0
1989-08-27T19:00:10.820 ,2,1,0.,24.0,0.,24.0,0.,24.0,0.,24.0
1989-08-27T19:00:34.820 ,2,0,0.,24.0,0.,24.0,0.,24.0,0.,24.0
1989-08-27T19:00:58.820 ,3,1,0.,24.0,0.,24.0,0.,24.0,0.,24.0
1989-08-27T19:01:22.820 ,3,0,0.,24.0,0.,24.0,0.,24.0,0.,24.0
1989-08-27T19:01:46.820 ,4,1,0.,24.0,0.,24.0,0.,24.0,0.,24.0
1989-08-27T19:02:10.820 ,4,0,0.,24.0,0.,24.0,0.,24.0,0.,24.0
1989-08-27T19:02:34.820 ,5,1,0.,24.0,0.,24.0,0.,24.0,0.,24.0
1989-08-27T19:02:58.820 ,5,0,0.,24.0,0.,24.0,0.,24.0,0.,24.0
1989-08-27T19:03:22.820 ,6,1,0.,24.0,0.,24.0,0.,24.0,0.,24.0
1989-08-27T19:03:46.820 ,6,0,0.,24.0,0.,24.0,0.,24.0,0.,24.0
1989-08-27T19:04:10.820 ,7,1,7.,24.0,0.,24.0,0.,24.0,0.,24.0
1989-08-27T19:04:34.820 ,7,0,31.,24.0,0.,24.0,0.,24.0,0.,24.0
1989-08-27T19:04:58.820 ,7,1,34.,24.0,0.,24.0,0.,24.0,0.,24.0
1989-08-27T19:05:22.820 ,7,0,25.,24.0,0.,24.0,0.,24.0,0.,24.0
1989-08-27T19:05:46.820 ,6,1,28.,24.0,0.,24.0,0.,24.0,0.,24.0
1989-08-27T19:06:10.820 ,6,0,0.,24.0,0.,24.0,0.,24.0,0.,24.0
1989-08-27T19:06:34.820 ,5,1,0.,24.0,0.,24.0,0.,24.0,0.,24.0
1989-08-27T19:06:58.820 ,5,0,0.,24.0,0.,24.0,0.,24.0,0.,24.0
1989-08-27T19:07:22.820 ,4,1,0.,24.0,0.,24.0,0.,24.0,0.,24.0
1989-08-27T19:07:46.820 ,4,0,0.,24.0,0.,24.0,0.,24.0,0.,24.0
1989-08-27T19:08:10.820 ,3,1,0.,24.0,0.,24.0,0.,24.0,0.,24.0
1989-08-27T19:08:34.820 ,3,0,0.,24.0,0.,24.0,0.,24.0,0.,24.0
1989-08-27T19:08:58.820 ,2,1,0.,24.0,0.,24.0,0.,24.0,0.,24.0
1989-08-27T19:09:22.820 ,2,0,0.,24.0,0.,24.0,0.,24.0,0.,24.0
1989-08-27T19:09:46.820 ,1,1,0.,24.0,0.,24.0,0.,24.0,0.,24.0
1989-08-27T19:10:10.820 ,1,0,0.,24.0,0.,24.0,0.,24.0,0.,24.0
1989-08-27T19:10:34.820 ,0,1,0.,24.0,0.,24.0,0.,24.0,0.,24.0
1989-08-27T19:10:58.820 ,0,0,0.,24.0,0.,24.0,0.,24.0,0.,24.0
1989-08-27T19:11:22.820 ,0,1,0.,24.0,0.,24.0,0.,24.0,0.,24.0
1989-08-27T19:11:46.820 ,0,0,0.,24.0,0.,24.0,0.,24.0,0.,24.0
1989-08-27T19:12:10.820 ,1,1,0.,24.0,0.,24.0,0.,24.0,0.,24.0
1989-08-27T19:12:34.820 ,1,0,0.,24.0,0.,24.0,0.,24.0,0.,24.0
1989-08-27T19:12:58.820 ,2,1,0.,24.0,0.,24.0,0.,24.0,0.,24.0
1989-08-27T19:13:22.820 ,2,0,0.,24.0,0.,24.0,0.,24.0,0.,24.0
1989-08-27T19:13:46.820 ,3,1,0.,24.0,0.,24.0,0.,24.0,0.,24.0
1989-08-27T19:14:10.820 ,3,0,0.,24.0,0.,24.0,0.,24.0,0.,24.0
1989-08-27T19:14:34.820 ,4,1,1.,24.0,0.,24.0,0.,24.0,0.,24.0
1989-08-27T19:14:58.820 ,4,0,0.,24.0,0.,24.0,0.,24.0,0.,24.0
1989-08-27T19:15:22.820 ,5,1,0.,24.0,0.,24.0,0.,24.0,0.,24.0
1989-08-27T19:15:46.820 ,5,0,0.,24.0,1.,24.0,0.,24.0,0.,24.0
1989-08-27T19:16:10.820 ,6,1,0.,24.0,0.,24.0,0.,24.0,0.,24.0
1989-08-27T19:16:34.820 ,6,0,0.,24.0,0.,24.0,0.,24.0,0.,24.0
1989-08-27T19:16:58.820 ,7,1,4.,24.0,0.,24.0,0.,24.0,0.,24.0
1989-08-27T19:17:22.820 ,7,0,37.,24.0,0.,24.0,0.,24.0,0.,24.0
1989-08-27T19:17:46.820 ,7,1,32.,24.0,0.,24.0,0.,24.0,0.,24.0
1989-08-27T19:18:10.820 ,7,0,40.,24.0,0.,24.0,0.,24.0,0.,24.0
1989-08-27T19:18:34.820 ,6,1,35.,24.0,0.,24.0,0.,24.0,0.,24.0
1989-08-27T19:18:58.820 ,6,0,1.,24.0,0.,24.0,0.,24.0,0.,24.0
1989-08-27T19:19:22.820 ,5,1,0.,24.0,0.,24.0,0.,24.0,0.,24.0
1989-08-27T19:19:46.820 ,5,0,0.,24.0,1.,24.0,0.,24.0,0.,24.0
1989-08-27T19:20:12.620 ,4,1,0.,24.0,0.,24.0,0.,24.0,0.,24.0
1989-08-27T19:20:34.820 ,4,0,0.,24.0,0.,24.0,0.,24.0,0.,24.0
1989-08-27T19:20:58.820 ,3,1,0.,24.0,0.,24.0,0.,24.0,0.,24.0
1989-08-27T19:21:22.820 ,3,0,0.,24.0,0.,24.0,0.,24.0,0.,24.0
1989-08-27T19:21:46.820 ,2,1,0.,24.0,0.,24.0,0.,24.0,0.,24.0
1989-08-27T19:22:10.820 ,2,0,0.,24.0,0.,24.0,0.,24.0,0.,24.0
1989-08-27T19:22:34.820 ,1,1,0.,24.0,0.,24.0,0.,24.0,0.,24.0
1989-08-27T19:22:58.820 ,1,0,0.,24.0,0.,24.0,0.,24.0,0.,24.0
1989-08-27T19:23:22.820 ,0,1,0.,24.0,0.,24.0,0.,24.0,0.,24.0
1989-08-27T19:23:46.820 ,0,0,0.,24.0,0.,24.0,0.,24.0,0.,24.0
1989-08-27T19:24:10.820 ,0,1,0.,24.0,0.,24.0,0.,24.0,0.,24.0
1989-08-27T19:24:34.820 ,0,0,0.,24.0,0.,24.0,0.,24.0,0.,24.0
1989-08-27T19:24:58.820 ,1,1,0.,24.0,0.,24.0,0.,24.0,0.,24.0
1989-08-27T19:25:22.820 ,1,0,0.,24.0,0.,24.0,0.,24.0,0.,24.0
1989-08-27T19:25:46.820 ,2,1,0.,24.0,0.,24.0,0.,24.0,0.,24.0
1989-08-27T19:26:10.820 ,2,0,0.,24.0,0.,24.0,0.,24.0,0.,24.0
1989-08-27T19:26:34.820 ,3,1,0.,24.0,0.,24.0,0.,24.0,0.,24.0
1989-08-27T19:26:58.820 ,3,0,0.,24.0,0.,24.0,0.,24.0,0.,24.0
1989-08-27T19:27:22.820 ,4,1,0.,24.0,1.,24.0,0.,24.0,0.,24.0
1989-08-27T19:27:46.820 ,4,0,0.,24.0,0.,24.0,0.,24.0,0.,24.0
1989-08-27T19:28:10.820 ,5,1,0.,24.0,0.,24.0,0.,24.0,0.,24.0
1989-08-27T19:28:34.820 ,5,0,0.,24.0,0.,24.0,0.,24.0,0.,24.0
1989-08-27T19:28:58.820 ,6,1,0.,24.0,0.,24.0,0.,24.0,0.,24.0
1989-08-27T19:29:22.820 ,6,0,0.,24.0,0.,24.0,0.,24.0,0.,24.0
1989-08-27T19:29:46.820 ,7,1,10.,24.0,0.,24.0,0.,24.0,0.,24.0
1989-08-27T19:30:10.820 ,7,0,25.,24.0,0.,24.0,0.,24.0,0.,24.0
1989-08-27T19:30:34.820 ,7,1,43.,24.0,0.,24.0,0.,24.0,0.,24.0
1989-08-27T19:30:58.820 ,7,0,26.,24.0,0.,24.0,0.,24.0,0.,24.0
1989-08-27T19:31:22.820 ,6,1,13.,24.0,0.,24.0,0.,24.0,0.,24.0
1989-08-27T19:31:46.820 ,6,0,0.,24.0,0.,24.0,0.,24.0,0.,24.0
1989-08-27T19:32:10.820 ,5,1,0.,24.0,0.,24.0,0.,24.0,0.,24.0
1989-08-27T19:32:34.820 ,5,0,0.,24.0,0.,24.0,0.,24.0,0.,24.0
1989-08-27T19:32:58.820 ,4,1,0.,24.0,0.,24.0,0.,24.0,0.,24.0
1989-08-27T19:33:22.820 ,4,0,1.,24.0,0.,24.0,0.,24.0,0.,24.0
1989-08-27T19:33:46.820 ,3,1,0.,24.0,0.,24.0,0.,24.0,0.,24.0
1989-08-27T19:34:10.810 ,3,0,0.,24.0,0.,24.0,0.,24.0,0.,24.0
1989-08-27T19:34:34.810 ,2,1,0.,24.0,0.,24.0,0.,24.0,0.,24.0
1989-08-27T19:34:58.810 ,2,0,0.,24.0,0.,24.0,0.,24.0,0.,24.0
1989-08-27T19:35:22.810 ,1,1,0.,24.0,0.,24.0,0.,24.0,0.,24.0
1989-08-27T19:35:46.810 ,1,0,0.,24.0,0.,24.0,0.,24.0,0.,24.0
1989-08-27T19:36:10.810 ,0,1,0.,24.0,0.,24.0,0.,24.0,0.,24.0
1989-08-27T19:36:34.810 ,0,0,0.,24.0,0.,24.0,0.,24.0,0.,24.0
1989-08-27T19:36:58.810 ,0,1,0.,24.0,0.,24.0,0.,24.0,0.,24.0
1989-08-27T19:37:22.810 ,0,0,0.,24.0,0.,24.0,0.,24.0,0.,24.0
1989-08-27T19:37:46.810 ,1,1,0.,24.0,0.,24.0,0.,24.0,0.,24.0
1989-08-27T19:38:10.810 ,1,0,0.,24.0,0.,24.0,0.,24.0,0.,24.0
1989-08-27T19:38:34.810 ,2,1,0.,24.0,0.,24.0,0.,24.0,0.,24.0
1989-08-27T19:38:58.810 ,2,0,0.,24.0,0.,24.0,0.,24.0,0.,24.0
1989-08-27T19:39:22.810 ,3,1,0.,24.0,0.,24.0,0.,24.0,0.,24.0
1989-08-27T19:39:46.810 ,3,0,0.,24.0,0.,24.0,0.,24.0,0.,24.0
1989-08-27T19:40:10.810 ,4,1,1.,24.0,0.,24.0,0.,24.0,0.,24.0
1989-08-27T19:40:34.810 ,4,0,1.,24.0,0.,24.0,0.,24.0,0.,24.0
1989-08-27T19:40:58.810 ,5,1,0.,24.0,0.,24.0,0.,24.0,0.,24.0
1989-08-27T19:41:22.810 ,5,0,0.,24.0,0.,24.0,0.,24.0,0.,24.0
1989-08-27T19:41:46.810 ,6,1,0.,24.0,0.,24.0,0.,24.0,0.,24.0
1989-08-27T19:42:10.810 ,6,0,0.,24.0,0.,24.0,0.,24.0,0.,24.0
1989-08-27T19:42:34.810 ,7,1,6.,24.0,0.,24.0,0.,24.0,0.,24.0
1989-08-27T19:42:58.810 ,7,0,34.,24.0,0.,24.0,0.,24.0,0.,24.0
1989-08-27T19:43:22.810 ,7,1,27.,24.0,0.,24.0,0.,24.0,0.,24.0
1989-08-27T19:43:46.810 ,7,0,28.,24.0,0.,24.0,0.,24.0,0.,24.0
1989-08-27T19:44:10.810 ,6,1,23.,24.0,0.,24.0,0.,24.0,0.,24.0
1989-08-27T19:44:34.810 ,6,0,0.,24.0,0.,24.0,0.,24.0,0.,24.0
1989-08-27T19:44:58.810 ,5,1,0.,24.0,0.,24.0,0.,24.0,0.,24.0
1989-08-27T19:45:22.810 ,5,0,0.,24.0,0.,24.0,0.,24.0,0.,24.0
1989-08-27T19:45:46.810 ,4,1,0.,24.0,0.,24.0,0.,24.0,0.,24.0
1989-08-27T19:46:10.810 ,4,0,0.,24.0,0.,24.0,0.,24.0,0.,24.0
1989-08-27T19:46:34.810 ,0,0,,0,,0,,0,,0
1989-08-27T19:46:58.810 ,0,0,,0,,0,,0,,0
1989-08-27T19:46:42.610 ,3,1,0.,24.0,0.,24.0,0.,24.0,0.,24.0
1989-08-27T19:46:58.810 ,3,0,0.,24.0,0.,24.0,0.,24.0,0.,24.0
1989-08-27T19:47:22.810 ,2,1,0.,24.0,0.,24.0,0.,24.0,0.,24.0
1989-08-27T19:47:46.810 ,2,0,0.,24.0,0.,24.0,0.,24.0,0.,24.0
1989-08-27T19:48:10.810 ,1,1,0.,24.0,0.,24.0,0.,24.0,0.,24.0
1989-08-27T19:48:34.810 ,1,0,0.,24.0,0.,24.0,0.,24.0,0.,24.0
1989-08-27T19:48:58.810 ,0,1,0.,24.0,0.,24.0,0.,24.0,0.,24.0
1989-08-27T19:49:22.810 ,0,0,0.,24.0,0.,24.0,0.,24.0,0.,24.0
1989-08-27T19:49:46.810 ,0,1,0.,24.0,0.,24.0,0.,24.0,0.,24.0
1989-08-27T19:50:10.810 ,0,0,1.,24.0,0.,24.0,0.,24.0,0.,24.0
1989-08-27T19:50:34.810 ,1,1,0.,24.0,0.,24.0,0.,24.0,0.,24.0
1989-08-27T19:50:58.810 ,1,0,0.,24.0,0.,24.0,0.,24.0,0.,24.0
1989-08-27T19:51:22.810 ,2,1,0.,24.0,0.,24.0,0.,24.0,0.,24.0
1989-08-27T19:51:46.810 ,2,0,0.,24.0,0.,24.0,0.,24.0,0.,24.0
1989-08-27T19:52:10.810 ,3,1,0.,24.0,0.,24.0,0.,24.0,0.,24.0
1989-08-27T19:52:34.810 ,3,0,0.,24.0,0.,24.0,0.,24.0,0.,24.0
1989-08-27T19:52:58.810 ,4,1,0.,24.0,0.,24.0,0.,24.0,0.,24.0
1989-08-27T19:53:22.810 ,4,0,0.,24.0,0.,24.0,0.,24.0,0.,24.0
1989-08-27T19:53:46.810 ,5,1,0.,24.0,0.,24.0,0.,24.0,0.,24.0
1989-08-27T19:54:10.810 ,5,0,0.,24.0,0.,24.0,0.,24.0,0.,24.0
1989-08-27T19:54:34.810 ,6,1,0.,24.0,0.,24.0,0.,24.0,0.,24.0
1989-08-27T19:54:58.810 ,6,0,0.,24.0,0.,24.0,0.,24.0,0.,24.0
1989-08-27T19:55:22.810 ,0,0,6.,24.0,0.,24.0,0.,24.0,0.,24.0
1989-08-27T19:55:46.810 ,0,0,28.,24.0,0.,24.0,0.,24.0,0.,24.0
1989-08-27T19:56:10.810 ,7,1,28.,24.0,0.,24.0,0.,24.0,0.,24.0
1989-08-27T19:56:34.810 ,7,0,29.,24.0,0.,24.0,0.,24.0,0.,24.0
1989-08-27T19:56:58.810 ,6,1,21.,24.0,0.,24.0,0.,24.0,0.,24.0
1989-08-27T19:57:22.810 ,6,0,0.,24.0,0.,24.0,0.,24.0,0.,24.0
1989-08-27T19:57:46.810 ,5,1,0.,24.0,0.,24.0,0.,24.0,0.,24.0
1989-08-27T19:58:10.810 ,5,0,0.,24.0,0.,24.0,0.,24.0,0.,24.0
1989-08-27T19:58:34.810 ,4,1,1.,24.0,0.,24.0,0.,24.0,0.,24.0
1989-08-27T19:58:58.810 ,4,0,0.,24.0,0.,24.0,0.,24.0,0.,24.0
1989-08-27T19:59:22.810 ,3,1,0.,24.0,0.,24.0,0.,24.0,0.,24.0
1989-08-27T19:59:46.810 ,3,0,0.,24.0,0.,24.0,0.,24.0,0.,24.0
1989-08-27T20:00:10.810 ,2,1,0.,24.0,0.,24.0,0.,24.0,0.,24.0
1989-08-27T20:00:34.810 ,2,0,0.,24.0,0.,24.0,0.,24.0,0.,24.0
1989-08-27T20:00:58.810 ,1,1,0.,24.0,0.,24.0,0.,24.0,0.,24.0
1989-08-27T20:01:22.810 ,1,0,0.,24.0,0.,24.0,0.,24.0,0.,24.0
1989-08-27T20:01:46.810 ,0,1,0.,24.0,0.,24.0,0.,24.0,0.,24.0
1989-08-27T20:02:10.810 ,0,0,0.,24.0,0.,24.0,0.,24.0,0.,24.0
1989-08-27T20:02:34.810 ,0,1,0.,24.0,0.,24.0,0.,24.0,0.,24.0
1989-08-27T20:02:58.810 ,0,0,0.,24.0,0.,24.0,0.,24.0,0.,24.0
1989-08-27T20:03:22.810 ,1,1,0.,24.0,0.,24.0,0.,24.0,0.,24.0
1989-08-27T20:03:46.810 ,1,0,0.,24.0,0.,24.0,0.,24.0,0.,24.0
1989-08-27T20:04:10.810 ,2,1,0.,24.0,0.,24.0,0.,24.0,0.,24.0
1989-08-27T20:04:34.810 ,2,0,0.,24.0,0.,24.0,0.,24.0,0.,24.0
1989-08-27T20:04:58.810 ,3,1,0.,24.0,0.,24.0,0.,24.0,0.,24.0
1989-08-27T20:05:22.810 ,3,0,0.,24.0,0.,24.0,0.,24.0,0.,24.0
1989-08-27T20:05:46.810 ,4,1,0.,24.0,0.,24.0,0.,24.0,0.,24.0
1989-08-27T20:06:10.810 ,4,0,0.,24.0,0.,24.0,0.,24.0,0.,24.0
1989-08-27T20:06:34.810 ,5,1,0.,24.0,0.,24.0,0.,24.0,0.,24.0
1989-08-27T20:06:58.810 ,5,0,0.,24.0,0.,24.0,0.,24.0,0.,24.0
1989-08-27T20:07:22.810 ,6,1,0.,24.0,0.,24.0,0.,24.0,0.,24.0
1989-08-27T20:07:46.810 ,6,0,0.,24.0,0.,24.0,0.,24.0,0.,24.0
1989-08-27T20:08:10.810 ,7,1,7.,24.0,0.,24.0,0.,24.0,0.,24.0
1989-08-27T20:08:34.810 ,7,0,32.,24.0,0.,24.0,0.,24.0,0.,24.0
1989-08-27T20:08:58.810 ,7,1,26.,24.0,0.,24.0,0.,24.0,0.,24.0
1989-08-27T20:09:22.810 ,7,0,25.,24.0,0.,24.0,0.,24.0,0.,24.0
1989-08-27T20:09:46.810 ,6,1,29.,24.0,0.,24.0,0.,24.0,0.,24.0
1989-08-27T20:10:10.810 ,6,0,0.,24.0,0.,24.0,0.,24.0,0.,24.0
1989-08-27T20:10:34.810 ,5,1,0.,24.0,0.,24.0,0.,24.0,0.,24.0
1989-08-27T20:10:58.810 ,5,0,0.,24.0,0.,24.0,0.,24.0,0.,24.0
1989-08-27T20:11:22.810 ,4,1,0.,24.0,0.,24.0,0.,24.0,0.,24.0
1989-08-27T20:11:46.810 ,4,0,0.,24.0,0.,24.0,0.,24.0,0.,24.0
1989-08-27T20:12:10.810 ,3,1,0.,24.0,0.,24.0,0.,24.0,0.,24.0
1989-08-27T20:12:34.810 ,3,0,0.,24.0,0.,24.0,0.,24.0,0.,24.0
1989-08-27T20:12:58.810 ,2,1,0.,24.0,0.,24.0,0.,24.0,0.,24.0
1989-08-27T20:13:22.810 ,2,0,1.,24.0,0.,24.0,0.,24.0,0.,24.0
1989-08-27T20:13:46.810 ,1,1,0.,24.0,0.,24.0,0.,24.0,0.,24.0
1989-08-27T20:14:10.810 ,1,0,0.,24.0,0.,24.0,0.,24.0,0.,24.0
1989-08-27T20:14:34.810 ,0,1,0.,24.0,0.,24.0,0.,24.0,0.,24.0
1989-08-27T20:14:58.810 ,0,0,0.,24.0,0.,24.0,0.,24.0,0.,24.0
1989-08-27T20:15:22.810 ,0,1,0.,24.0,0.,24.0,0.,24.0,0.,24.0
1989-08-27T20:15:46.810 ,0,0,0.,24.0,0.,24.0,0.,24.0,0.,24.0
1989-08-27T20:16:10.810 ,1,1,0.,24.0,0.,24.0,0.,24.0,0.,24.0
1989-08-27T20:16:34.810 ,1,0,0.,24.0,0.,24.0,0.,24.0,0.,24.0
1989-08-27T20:16:58.810 ,2,1,0.,24.0,0.,24.0,0.,24.0,0.,24.0
1989-08-27T20:17:22.810 ,2,0,0.,24.0,0.,24.0,0.,24.0,0.,24.0
1989-08-27T20:17:46.810 ,3,1,0.,24.0,0.,24.0,0.,24.0,0.,24.0
1989-08-27T20:18:10.810 ,3,0,1.,24.0,0.,24.0,0.,24.0,0.,24.0
1989-08-27T20:18:34.810 ,4,1,0.,24.0,0.,24.0,0.,24.0,0.,24.0
1989-08-27T20:18:58.810 ,4,0,0.,24.0,0.,24.0,0.,24.0,0.,24.0
1989-08-27T20:19:22.810 ,5,1,0.,24.0,0.,24.0,0.,24.0,0.,24.0
1989-08-27T20:19:46.810 ,5,0,0.,24.0,0.,24.0,0.,24.0,0.,24.0
1989-08-27T20:20:10.810 ,6,1,0.,24.0,0.,24.0,0.,24.0,0.,24.0
1989-08-27T20:20:34.810 ,6,0,0.,24.0,0.,24.0,0.,24.0,0.,24.0
1989-08-27T20:20:58.810 ,7,1,6.,24.0,0.,24.0,0.,24.0,0.,24.0
1989-08-27T20:21:22.810 ,7,0,25.,24.0,0.,24.0,0.,24.0,0.,24.0
1989-08-27T20:21:46.810 ,7,1,29.,24.0,0.,24.0,0.,24.0,0.,24.0
1989-08-27T20:22:10.810 ,7,0,29.,24.0,0.,24.0,0.,24.0,0.,24.0
1989-08-27T20:22:34.810 ,6,1,27.,24.0,0.,24.0,0.,24.0,0.,24.0
1989-08-27T20:22:58.810 ,6,0,0.,24.0,0.,24.0,0.,24.0,0.,24.0
1989-08-27T20:23:22.810 ,5,1,0.,24.0,0.,24.0,0.,24.0,0.,24.0
1989-08-27T20:23:46.810 ,5,0,0.,24.0,0.,24.0,0.,24.0,0.,24.0
1989-08-27T20:24:10.810 ,4,1,0.,24.0,0.,24.0,0.,24.0,0.,24.0
1989-08-27T20:24:34.810 ,4,0,0.,24.0,0.,24.0,0.,24.0,0.,24.0
1989-08-27T20:24:58.810 ,3,1,0.,24.0,0.,24.0,0.,24.0,0.,24.0
1989-08-27T20:25:22.810 ,3,0,0.,24.0,0.,24.0,0.,24.0,0.,24.0
1989-08-27T20:25:46.810 ,2,1,1.,24.0,0.,24.0,0.,24.0,0.,24.0
1989-08-27T20:26:10.810 ,2,0,0.,24.0,0.,24.0,0.,24.0,0.,24.0
1989-08-27T20:26:34.810 ,1,1,1.,24.0,0.,24.0,0.,24.0,0.,24.0
1989-08-27T20:26:58.810 ,1,0,0.,24.0,0.,24.0,0.,24.0,0.,24.0
1989-08-27T20:27:22.810 ,0,1,0.,24.0,0.,24.0,0.,24.0,0.,24.0
1989-08-27T20:27:46.810 ,0,0,1.,24.0,0.,24.0,0.,24.0,0.,24.0
1989-08-27T20:28:10.810 ,0,1,0.,24.0,0.,24.0,0.,24.0,0.,24.0
1989-08-27T20:28:34.810 ,0,0,0.,24.0,1.,24.0,0.,24.0,0.,24.0
1989-08-27T20:28:58.810 ,1,1,1.,24.0,0.,24.0,0.,24.0,0.,24.0
1989-08-27T20:29:22.810 ,1,0,0.,24.0,0.,24.0,0.,24.0,0.,24.0
1989-08-27T20:29:46.810 ,2,1,0.,24.0,0.,24.0,0.,24.0,0.,24.0
1989-08-27T20:30:10.810 ,2,0,0.,24.0,0.,24.0,0.,24.0,0.,24.0
1989-08-27T20:30:34.810 ,3,1,0.,24.0,0.,24.0,0.,24.0,0.,24.0
1989-08-27T20:30:58.810 ,3,0,0.,24.0,0.,24.0,0.,24.0,0.,24.0
1989-08-27T20:31:22.810 ,4,1,0.,24.0,0.,24.0,0.,24.0,0.,24.0
1989-08-27T20:31:46.810 ,4,0,1.,24.0,0.,24.0,0.,24.0,0.,24.0
1989-08-27T20:32:10.810 ,5,1,0.,24.0,0.,24.0,0.,24.0,0.,24.0
1989-08-27T20:32:34.810 ,5,0,0.,24.0,0.,24.0,0.,24.0,0.,24.0
1989-08-27T20:32:58.810 ,6,1,0.,24.0,0.,24.0,0.,24.0,0.,24.0
1989-08-27T20:33:22.810 ,6,0,0.,24.0,0.,24.0,0.,24.0,0.,24.0
1989-08-27T20:33:46.810 ,7,1,8.,24.0,0.,24.0,0.,24.0,0.,24.0
1989-08-27T20:34:10.810 ,7,0,29.,24.0,0.,24.0,0.,24.0,0.,24.0
1989-08-27T20:34:34.810 ,7,1,22.,24.0,0.,24.0,0.,24.0,0.,24.0
1989-08-27T20:34:58.810 ,7,0,33.,24.0,0.,24.0,0.,24.0,0.,24.0
1989-08-27T20:35:22.810 ,6,1,16.,24.0,0.,24.0,0.,24.0,0.,24.0
1989-08-27T20:35:46.810 ,6,0,1.,24.0,0.,24.0,0.,24.0,0.,24.0
1989-08-27T20:36:10.810 ,5,1,0.,24.0,0.,24.0,0.,24.0,0.,24.0